Location: Boulin
(43.2500°N, 0.1333°E)
Time: 02:38:01
(UTC+00:00)

Meteor 1-26 Rocket - Visible Passes

Search period start: 17 March 2026 00:00
Search period end: 27 March 2026 00:00
Orbit: 805 x 927 km, 81.3° (Epoch: 16 March)

Date Brightness Start Highest point End Pass type
(mag) Time Alt. Az. Time Alt. Az. Time Alt. Az.
17 Mar 7.4 04:31:03 10° ESE 04:34:01 14° E 04:36:57 10° NE visible
17 Mar 7.9 18:37:10 10° WNW 18:38:51 11° W 18:40:31 10° W visible
18 Mar 7.3 04:23:41 10° ESE 04:26:39 14° E 04:29:36 10° NE visible
19 Mar 7.3 04:16:18 10° ESE 04:19:17 15° E 04:22:14 10° NE visible
20 Mar 7.3 04:08:55 10° ESE 04:11:55 15° E 04:14:53 10° NE visible
21 Mar 7.2 04:01:33 10° ESE 04:04:33 15° E 04:07:31 10° NE visible
22 Mar 7.2 03:54:09 10° ESE 03:57:11 15° E 04:00:10 10° NE visible
23 Mar 7.1 03:46:46 10° ESE 03:49:49 15° E 03:52:48 10° NE visible
23 Mar 4.2 05:26:37 10° SSW 05:32:22 75° W 05:37:58 10° N visible
24 Mar 7.1 03:39:24 10° ESE 03:42:26 15° E 03:45:26 10° NE visible
24 Mar 4.2 05:19:17 10° SSW 05:25:00 75° W 05:30:36 10° N visible
25 Mar 7.0 03:32:01 10° ESE 03:35:04 15° E 03:38:04 10° NE visible
25 Mar 4.2 05:11:55 10° SSW 05:17:38 74° W 05:23:12 10° N visible
26 Mar 7.0 03:24:38 10° ESE 03:27:41 15° E 03:30:42 10° NE visible
26 Mar 4.2 05:04:34 10° SSW 05:10:16 73° W 05:15:50 10° N visible
